Home > Weather > Bayreuth > Past weeks

Flag for Germany Weather for the Past 2 Weeks in Bayreuth, Bavaria, Germany

Now
45 °F

Sunny.


Feels Like: 45 °F
Forecast: 44 / 61 °F
Wind: 1 mph from North

Location: Grafenwoehr

Current Time: Apr 30, 2016 at 10:09:12 AM

Latest Report: Apr 30, 2016 at 8:58 AM


Visibility: N/A

Pressure: 30.07 "Hg

Humidity: 66%

Dew Point: 34 °F

Location of BayreuthLocation

Historic Weather in Bayreuth — Graph

°F

Bayreuth Temperature Yesterday

Maximum temperature yesterday: 56 °F (at 6:58 PM)
Minimum temperature yesterday: 26 °F (at 4:58 AM)
Average temperature yesterday: 41 °F

High & Low Weather Summary for the Past Weeks

 TemperatureHumidityPressure
High65 °F (Apr 21, 5:58 PM)100% (Apr 16, 7:58 AM)30.41 "Hg (Apr 16, 7:58 AM)
Low26 °F (Apr 29, 4:58 AM)22% (Apr 21, 5:58 PM)29.54 "Hg (Apr 26, 7:58 AM)
Average43 °F75%29.94 "Hg
* Reported Apr 15 8:58 AM — Apr 30 8:58 AM, Bayreuth, Weather by CustomWeather, © 2016

Note: Actual official high and low records may vary slightly from our data, if they occured in-between our weather recording intervals... More about our weather records

Advertising

Bayreuth Weather History for the Previous 24 Hours

Scroll right to see more
 ConditionsComfort  
Time TempWeatherWind HumidityBarometerVisibility
8:58 AM
Sat, Apr 30
45 °FSunny.1 mph66%30.07 "HgN/A
7:58 AM36 °FSunny.2 mph88%30.07 "HgN/A
6:58 AM30 °FSunny.No wind93%30.08 "HgN/A
5:58 AM28 °FClear.No wind93%30.07 "HgN/A
4:58 AM28 °FClear.No wind93%30.07 "HgN/A
3:58 AM30 °FClear.No wind93%30.07 "HgN/A
2:58 AM30 °FClear.No wind91%30.06 "HgN/A
1:58 AM32 °FClear.No wind93%30.07 "HgN/A
12:58 AM34 °FClear.No wind87%30.08 "HgN/A
11:58 PM
Fri, Apr 29
36 °FClear.No wind85%30.08 "HgN/A
10:58 PM37 °FClear.No wind81%30.08 "HgN/A
9:58 PM42 °FClear.No wind70%30.09 "HgN/A
8:58 PM48 °FSunny.No wind54%30.08 "HgN/A
7:58 PM53 °FSunny.No wind42%30.07 "HgN/A
6:58 PM56 °FPassing clouds.7 mph37%30.06 "HgN/A
5:58 PM55 °FScattered clouds.3 mph35%30.07 "HgN/A
4:58 PM54 °FOvercast.5 mph38%30.09 "HgN/A
3:58 PM54 °FPartly sunny.6 mph38%30.09 "HgN/A
2:58 PM53 °FOvercast.6 mph41%30.11 "HgN/A
1:58 PM51 °FOvercast.5 mph44%30.11 "HgN/A
12:58 PM52 °FPassing clouds.12 mph40%30.11 "HgN/A
11:58 AM50 °FSunny.9 mph47%30.13 "HgN/A
10:58 AM46 °FSunny.7 mph66%30.14 "HgN/A
Weather by CustomWeather, © 2016

See weather overviewHow to use our weather pages